CFBEE CAZ5-CYLI

Flight info

Callsign CFBEE
Flight time 0h 20m
Altitude 6000
Route DCT
Aircraft C208/L-SDFGR/C

Departure

Time 2026-04-15 13:56
Airport Cache Creek-Ashcroft Regional Airport (CAZ5)

Arrival

Time 2026-04-15 14:16
Airport Lillooet Airport (CYLI)
Time Latitude Longitude Altitude Speed Heading
2026-04-15 13:50 50.78045 -121.32424 2167 ft 0 kts 262°
2026-04-15 13:53 50.78044 -121.32429 2167 ft 4 kts 262°
2026-04-15 13:54 50.78014 -121.32440 2173 ft 6 kts 157°
2026-04-15 13:54 50.77967 -121.32377 2178 ft 13 kts 130°
2026-04-15 13:54 50.77915 -121.32272 2174 ft 10 kts 126°
2026-04-15 13:54 50.77869 -121.32230 2173 ft 0 kts 170°
2026-04-15 13:55 50.77757 -121.32198 2171 ft 41 kts 169°
2026-04-15 13:55 50.77306 -121.32060 2161 ft 88 kts 171°
2026-04-15 13:55 50.76659 -121.31837 2316 ft 98 kts 167°
2026-04-15 13:56 50.76013 -121.31535 2567 ft 96 kts 146°
2026-04-15 13:56 50.75829 -121.30626 2717 ft 98 kts 56°
2026-04-15 13:56 50.76424 -121.30189 2936 ft 101 kts
2026-04-15 13:56 50.77129 -121.30191 3315 ft 101 kts 356°
2026-04-15 13:57 50.77838 -121.30300 3630 ft 105 kts 352°
2026-04-15 13:57 50.78570 -121.30427 3957 ft 106 kts 352°
2026-04-15 13:57 50.79360 -121.30569 4038 ft 125 kts 347°
2026-04-15 13:57 50.80203 -121.31126 4046 ft 139 kts 331°
2026-04-15 13:58 50.81090 -121.31877 4044 ft 150 kts 332°
2026-04-15 13:58 50.82007 -121.32682 4042 ft 151 kts 325°
2026-04-15 13:58 50.82804 -121.33754 4045 ft 149 kts 319°
2026-04-15 13:58 50.83565 -121.34834 4038 ft 149 kts 319°
2026-04-15 13:59 50.84128 -121.36177 4034 ft 152 kts 282°
2026-04-15 13:59 50.83866 -121.37777 4039 ft 158 kts 236°
2026-04-15 13:59 50.83127 -121.39068 4106 ft 157 kts 229°
2026-04-15 13:59 50.82391 -121.40280 4332 ft 147 kts 229°
2026-04-15 14:00 50.81699 -121.41397 4581 ft 138 kts 227°
2026-04-15 14:00 50.81050 -121.42453 4821 ft 130 kts 229°
2026-04-15 14:00 50.80448 -121.43498 5021 ft 130 kts 234°
2026-04-15 14:00 50.79885 -121.44718 5031 ft 144 kts 238°
2026-04-15 14:01 50.78987 -121.47698 5048 ft 155 kts 246°
2026-04-15 14:01 50.78341 -121.49094 5046 ft 159 kts 232°
2026-04-15 14:01 50.77610 -121.50407 5037 ft 160 kts 229°
2026-04-15 14:02 50.76847 -121.51654 4989 ft 154 kts 228°
2026-04-15 14:02 50.76152 -121.52941 5020 ft 155 kts 240°
2026-04-15 14:02 50.75663 -121.54485 5020 ft 159 kts 246°
2026-04-15 14:02 50.75269 -121.56110 5018 ft 158 kts 266°
2026-04-15 14:03 50.75564 -121.57723 5023 ft 155 kts 308°
2026-04-15 14:03 50.76253 -121.59019 5031 ft 154 kts 312°
2026-04-15 14:03 50.76959 -121.60289 5036 ft 154 kts 316°
2026-04-15 14:03 50.77763 -121.61409 5036 ft 154 kts 323°
2026-04-15 14:04 50.78657 -121.62343 5038 ft 154 kts 329°
2026-04-15 14:04 50.79565 -121.63242 4961 ft 156 kts 329°
2026-04-15 14:04 50.80436 -121.64301 4796 ft 162 kts 315°
2026-04-15 14:04 50.81209 -121.65633 4652 ft 166 kts 313°
2026-04-15 14:05 50.81995 -121.66981 4537 ft 166 kts 314°
2026-04-15 14:05 50.82764 -121.68294 4526 ft 161 kts 312°
2026-04-15 14:05 50.83479 -121.69616 4484 ft 159 kts 311°
2026-04-15 14:05 50.84212 -121.70955 4328 ft 163 kts 311°
2026-04-15 14:06 50.85003 -121.72279 4187 ft 168 kts 318°
2026-04-15 14:06 50.85885 -121.73500 4077 ft 169 kts 320°
2026-04-15 14:06 50.86816 -121.74588 4039 ft 163 kts 329°
2026-04-15 14:06 50.87808 -121.75403 4034 ft 159 kts 336°
2026-04-15 14:07 50.88790 -121.76168 4032 ft 156 kts 327°
2026-04-15 14:07 50.89559 -121.77362 4024 ft 157 kts 301°
2026-04-15 14:07 50.89669 -121.79028 4026 ft 159 kts 259°
2026-04-15 14:07 50.89228 -121.80628 4024 ft 159 kts 242°
2026-04-15 14:08 50.88680 -121.82170 4026 ft 158 kts 242°
2026-04-15 14:08 50.88152 -121.83673 4023 ft 158 kts 242°
2026-04-15 14:08 50.87624 -121.85167 4025 ft 158 kts 242°
2026-04-15 14:08 50.86944 -121.86536 4024 ft 160 kts 218°
2026-04-15 14:09 50.85947 -121.87319 4029 ft 161 kts 197°
2026-04-15 14:09 50.84854 -121.87712 4031 ft 161 kts 188°
2026-04-15 14:09 50.83766 -121.87937 4031 ft 162 kts 187°
2026-04-15 14:09 50.82622 -121.88005 4031 ft 160 kts 174°
2026-04-15 14:10 50.81513 -121.87791 4033 ft 161 kts 170°
2026-04-15 14:10 50.80410 -121.87490 4035 ft 162 kts 169°
2026-04-15 14:10 50.79308 -121.87127 4037 ft 162 kts 164°
2026-04-15 14:10 50.78221 -121.86643 4039 ft 162 kts 163°
2026-04-15 14:11 50.77138 -121.86149 4006 ft 162 kts 163°
2026-04-15 14:11 50.76061 -121.85662 4022 ft 162 kts 163°
2026-04-15 14:11 50.74967 -121.85328 4016 ft 161 kts 184°
2026-04-15 14:11 50.73993 -121.86097 4024 ft 161 kts 231°
2026-04-15 14:12 50.73629 -121.87718 4031 ft 159 kts 266°
2026-04-15 14:12 50.73445 -121.89443 4061 ft 160 kts 256°
2026-04-15 14:12 50.72954 -121.91007 4060 ft 161 kts 231°
2026-04-15 14:12 50.72057 -121.92009 3835 ft 157 kts 199°
2026-04-15 14:13 50.70978 -121.92038 3416 ft 157 kts 164°
2026-04-15 14:13 50.69991 -121.91351 2827 ft 154 kts 147°
2026-04-15 14:13 50.69262 -121.90216 2184 ft 143 kts 117°
2026-04-15 14:13 50.68393 -121.89605 1804 ft 138 kts 167°
2026-04-15 14:14 50.67458 -121.89347 1623 ft 132 kts 168°
2026-04-15 14:14 50.66581 -121.89096 1495 ft 127 kts 177°
2026-04-15 14:14 50.65828 -121.89658 1392 ft 121 kts 236°
2026-04-15 14:14 50.65429 -121.90620 1600 ft 91 kts 217°
2026-04-15 14:15 50.64913 -121.90403 1680 ft 89 kts 106°
2026-04-15 14:15 50.65085 -121.89583 1836 ft 71 kts 47°
2026-04-15 14:15 50.65441 -121.89045 1900 ft 75 kts 32°
2026-04-15 14:15 50.65920 -121.88738 1901 ft 81 kts 10°
2026-04-15 14:16 50.66476 -121.88821 1702 ft 82 kts 342°
2026-04-15 14:16 50.67010 -121.89068 1414 ft 77 kts 345°
2026-04-15 14:16 50.67366 -121.89223 1395 ft 14 kts 345°
2026-04-15 14:16 50.67411 -121.89246 1397 ft 4 kts 105°
2026-04-15 14:17 50.67339 -121.89212 1393 ft 18 kts 165°
2026-04-15 14:17 50.67177 -121.89138 1391 ft 28 kts 163°
2026-04-15 14:17 50.67036 -121.89074 1393 ft 11 kts 139°
2026-04-15 14:17 50.67040 -121.88972 1398 ft 4 kts 73°
2026-04-15 14:18 50.67027 -121.88900 1399 ft 12 kts 115°
2026-04-15 14:18 50.67008 -121.88870 1399 ft 0 kts 165°